WA4FG Weather Reports


Display with metric or nautical units.
time (UTC)temp
F
wind
direction
speed
MPH
gust
MPH
rain 1hr
in
rain 24hr
in
rain mn
in
humidity
%
barometer
mb
20260508062047 57 273 0.0 0.0 0.00 0.26 0.00 96 1015.2
20260508061520 57 273 0.0 0.0 0.00 0.26 0.00 96 1015.2
20260508060505 57 273 0.0 0.0 0.00 0.26 0.00 96 1015.2
20260508060005 57 273 0.0 0.0 0.00 0.26 0.00 96 1015.2
20260508055456 57 273 0.0 0.0 0.00 0.26 0.00 96 1015.2
20260508055000 57 273 0.0 0.0 0.00 0.26 0.00 96 1015.5
20260508054426 57 273 0.0 0.0 0.00 0.26 0.00 96 1015.5
20260508053923 58 273 0.0 0.0 0.00 0.26 0.00 96 1015.6
20260508053358 58 273 0.0 0.0 0.00 0.27 0.00 96 1015.7
20260508052852 58 273 0.0 0.0 0.00 0.27 0.00 95 1015.8
20260508052334 58 273 0.0 0.0 0.00 0.27 0.00 95 1015.7
20260508051826 58 273 0.0 0.0 0.00 0.27 0.00 95 1015.6
20260508051259 58 273 0.0 0.0 0.00 0.28 0.00 95 1015.7
20260508050757 58 273 0.0 0.0 0.00 0.28 0.00 95 1015.6
20260508050230 58 273 0.0 0.0 0.00 0.28 0.00 95 1015.8
20260508045715 58 273 0.0 0.0 0.00 0.28 0.28 95 1015.9
20260508045216 58 273 0.0 0.0 0.00 0.28 0.28 94 1015.7
20260508044650 58 273 0.0 0.0 0.00 0.28 0.28 94 1015.7
20260508044146 58 273 0.0 0.0 0.00 0.28 0.28 94 1015.9
20260508043620 58 273 0.0 0.0 0.00 0.28 0.28 94 1015.7
20260508043117 58 273 0.0 0.0 0.00 0.28 0.28 94 1015.8
20260508042626 58 273 0.0 0.0 0.00 0.28 0.28 94 1016.1
20260508042105 58 273 0.0 0.0 0.00 0.28 0.28 94 1015.8
20260508041537 58 273 0.0 0.0 0.00 0.28 0.28 94 1015.8
20260508041034 58 273 0.0 0.0 0.00 0.29 0.28 93 1015.7
20260508040507 58 273 0.0 0.0 0.00 0.31 0.28 93 1015.6
20260508040004 58 273 0.0 0.0 0.00 0.32 0.28 93 1015.8
20260508034420 59 273 0.0 0.0 0.00 0.36 0.28 92 1015.9
20260508033850 59 273 0.0 0.0 0.00 0.39 0.28 92 1015.8
20260508033323 59 273 0.0 0.0 0.00 0.40 0.28 92 1015.7
20260508032820 59 273 0.0 0.0 0.00 0.40 0.28 92 1015.6
20260508032306 59 273 0.0 0.0 0.00 0.41 0.28 92 1015.5
20260508031802 60 273 0.0 0.0 0.00 0.41 0.28 92 1015.6
20260508031254 60 273 0.0 0.0 0.00 0.41 0.28 92 1015.7
20260508030233 60 273 0.0 0.0 0.00 0.44 0.28 91 1015.4
20260508025734 60 273 0.0 0.0 0.00 0.46 0.28 91 1015.6
20260508025217 60 273 0.0 0.0 0.00 0.48 0.28 91 1015.5
20260508024718 60 273 0.0 0.0 0.00 0.52 0.28 91 1015.6
20260508024149 60 273 0.0 0.0 0.00 0.54 0.28 91 1015.3
20260508023622 60 273 0.0 0.0 0.00 0.55 0.28 91 1015.1
20260508023058 60 273 0.0 0.0 0.00 0.55 0.28 91 1015.1
20260508022532 60 273 0.0 0.0 0.00 0.55 0.28 90 1015.2
20260508021514 61 273 0.0 0.0 0.00 0.59 0.28 88 1015.0
20260508020949 61 273 0.0 0.0 0.00 0.59 0.28 88 1015.0
20260508020422 61 273 0.0 0.0 0.00 0.60 0.28 87 1015.2
20260508015854 62 273 0.0 0.0 0.00 0.60 0.28 86 1015.1
20260508015352 62 273 0.0 0.0 0.00 0.60 0.28 86 1014.9
20260508014839 62 273 0.0 0.0 0.00 0.60 0.28 85 1014.8
20260508014338 62 273 0.0 0.0 0.00 0.60 0.28 85 1014.9
20260508013813 63 273 0.0 0.0 0.00 0.60 0.28 84 1014.8
20260508012726 63 273 0.0 0.0 0.00 0.60 0.28 81 1014.8
20260508012203 63 273 0.0 0.0 0.00 0.60 0.28 81 1014.8
20260508011651 64 273 0.0 0.0 0.00 0.60 0.28 81 1014.7
20260508011111 64 273 0.0 0.0 0.00 0.60 0.28 80 1014.7
20260508010110 64 273 0.0 0.0 0.00 0.60 0.28 79 1014.6
20260508005544 64 273 0.0 0.0 0.00 0.60 0.28 80 1014.6
20260508005044 65 273 0.0 0.0 0.00 0.60 0.28 80 1014.4
20260508004525 65 273 0.0 0.0 0.00 0.60 0.28 81 1014.4
20260508004020 65 273 0.0 0.0 0.00 0.60 0.28 80 1014.4
20260508003522 65 273 0.0 0.0 0.00 0.60 0.28 80 1014.5
20260508002958 65 273 0.0 0.0 0.00 0.60 0.28 81 1014.4
20260508002432 66 273 0.0 0.0 0.00 0.60 0.28 80 1014.4
20260508001347 67 273 0.0 0.0 0.00 0.60 0.28 84 1014.4
20260508000314 67 273 0.0 0.0 0.00 0.60 0.28 84 1014.2
20260507235746 67 273 0.0 0.0 0.00 0.60 0.28 82 1014.1
20260507235245 68 273 0.0 0.0 0.00 0.60 0.28 83 1014.0
20260507234737 68 273 0.0 0.0 0.00 0.60 0.28 81 1014.1
20260507234243 68 273 0.0 0.0 0.00 0.60 0.28 82 1013.9
20260507233735 68 273 0.0 0.0 0.00 0.60 0.28 83 1013.9
20260507233211 68 273 0.0 0.0 0.00 0.60 0.28 82 1013.9
20260507232649 68 273 0.0 0.0 0.00 0.60 0.28 81 1013.8
20260507232146 68 273 0.0 0.0 0.00 0.60 0.28 80 1013.8
20260507231056 68 273 0.0 0.0 0.00 0.60 0.28 77 1013.8
20260507230554 68 273 0.0 0.0 0.00 0.60 0.28 76 1013.7
20260507230030 68 273 0.0 0.0 0.00 0.60 0.28 80 1013.6
20260507225507 68 273 0.0 0.0 0.00 0.60 0.28 81 1013.6
20260507224944 68 273 0.0 0.0 0.00 0.60 0.28 80 1013.6
20260507223913 69 273 0.0 0.0 0.00 0.60 0.28 80 1013.6
20260507223403 69 273 0.0 0.0 0.00 0.60 0.28 77 1013.6
20260507222834 69 273 0.0 0.0 0.00 0.60 0.28 80 1013.5
20260507221241 69 273 0.0 0.0 0.00 0.60 0.28 76 1013.5
20260507220717 70 273 0.0 0.0 0.00 0.60 0.28 78 1013.5
20260507220158 70 273 0.0 0.0 0.00 0.60 0.28 77 1013.5
20260507213509 70 273 0.0 0.0 0.00 0.61 0.28 71 1013.4
20260507211925 70 273 0.0 0.0 0.00 0.61 0.28 72 1013.3
20260507210858 70 273 0.0 1.0 0.00 0.62 0.28 72 1013.3
20260507210359 70 273 0.0 0.0 0.00 0.62 0.28 72 1013.1
20260507205855 70 273 0.0 0.0 0.00 0.63 0.28 73 1013.1
20260507205355 70 273 0.0 0.0 0.00 0.64 0.28 72 1013.1
20260507204827 70 304 0.0 0.0 0.00 0.71 0.28 74 1013.4
20260507204326 69 305 0.0 0.0 0.00 0.78 0.28 72 1013.4
20260507202239 69 305 0.0 2.0 0.00 0.79 0.28 72 1013.8
20260507201738 69 305 0.0 2.0 0.00 0.79 0.28 74 1013.5
20260507201236 69 302 0.0 0.0 0.00 0.79 0.28 72 1013.7
20260507200720 69 302 0.0 0.0 0.00 0.79 0.28 75 1013.7
20260507200220 69 302 0.0 1.0 0.00 0.79 0.28 73 1013.8
20260507195719 69 302 0.0 1.0 0.00 0.79 0.28 76 1013.8
20260507195153 69 302 0.0 1.0 0.00 0.79 0.28 76 1013.7
20260507194649 69 302 0.0 1.0 0.00 0.79 0.28 78 1013.8
20260507194147 69 302 0.0 0.0 0.00 0.79 0.28 76 1013.9
20260507193619 69 302 0.0 5.0 0.00 0.79 0.28 75 1013.9
20260507193116 69 302 0.0 5.0 0.00 0.79 0.28 78 1013.8
20260507192555 68 161 0.0 0.0 0.00 0.79 0.28 77 1013.8
20260507192028 68 161 0.0 4.0 0.00 0.79 0.28 79 1013.8
20260507191525 67 161 0.0 4.0 0.00 0.79 0.28 80 1013.8
20260507191027 67 161 0.0 0.0 0.00 0.79 0.28 80 1014.0
20260507190515 66 161 0.0 0.0 0.00 0.79 0.28 78 1014.0
20260507185959 66 161 0.0 0.0 0.00 0.79 0.28 80 1013.9
20260507185500 66 161 0.0 0.0 0.00 0.79 0.28 85 1014.0
20260507184957 65 161 0.0 0.0 0.00 0.79 0.28 83 1014.1
20260507184431 65 161 0.0 0.0 0.00 0.79 0.28 83 1014.2
20260507183425 65 161 0.0 2.0 0.00 0.79 0.28 84 1014.3
20260507181855 65 160 0.0 0.0 0.00 0.79 0.28 86 1014.7
20260507181322 65 160 0.0 0.0 0.00 0.79 0.28 86 1014.7
20260507180818 64 160 0.0 0.0 0.00 0.79 0.28 85 1014.7
20260507180252 64 160 0.0 0.0 0.00 0.79 0.28 87 1014.6
20260507175749 64 160 0.0 4.0 0.00 0.79 0.28 89 1014.7
20260507175240 64 160 0.0 4.0 0.00 0.79 0.28 88 1014.7
20260507174737 64 161 0.0 0.0 0.00 0.79 0.28 89 1014.7
20260507174211 63 161 0.0 0.0 0.00 0.79 0.28 91 1014.8
20260507173644 63 161 0.0 1.0 0.00 0.79 0.28 92 1014.8
20260507172638 62 161 0.0 0.0 0.00 0.79 0.28 94 1015.1
20260507172136 62 161 0.0 0.0 0.00 0.79 0.28 95 1015.1
20260507171609 61 161 0.0 0.0 0.00 0.79 0.28 95 1015.1
20260507171104 61 161 0.0 0.0 0.00 0.79 0.28 95 1015.0
20260507170618 61 161 0.0 0.0 0.00 0.79 0.28 96 1015.2
20260507170049 61 161 0.0 0.0 0.00 0.79 0.28 95 1015.2
20260507165508 61 161 0.0 0.0 0.00 0.79 0.28 96 1015.2
20260507164958 61 161 0.0 0.0 0.00 0.79 0.28 96 1015.3
20260507163952 61 161 0.0 1.0 0.00 0.79 0.28 97 1015.1
20260507163452 60 161 0.0 1.0 0.00 0.79 0.28 96 1015.1
20260507162926 60 196 0.0 0.0 0.00 0.79 0.28 97 1015.0
20260507162401 60 196 0.0 0.0 0.00 0.79 0.28 97 1014.8
20260507161903 60 196 0.0 0.0 0.00 0.79 0.28 97 1014.8
20260507161356 60 196 0.0 0.0 0.00 0.79 0.28 97 1014.9
20260507160853 61 196 0.0 0.0 0.00 0.79 0.28 97 1014.8
20260507160350 61 196 0.0 0.0 0.00 0.79 0.28 97 1014.7
20260507155854 61 196 0.0 0.0 0.00 0.79 0.28 97 1014.6
20260507155328 61 196 0.0 1.0 0.00 0.79 0.28 97 1014.6
20260507154822 61 196 0.0 1.0 0.00 0.79 0.28 97 1014.7
20260507154318 61 196 0.0 1.0 0.00 0.79 0.28 97 1014.6
20260507153227 62 213 0.0 1.0 0.00 0.79 0.28 98 1014.4
20260507152724 62 213 0.0 0.0 0.00 0.79 0.28 98 1014.3
20260507152223 62 213 0.0 0.0 0.00 0.79 0.28 98 1014.3
20260507151200 62 213 0.0 0.0 0.00 0.79 0.28 99 1014.2
20260507150638 62 213 0.0 0.0 0.00 0.79 0.28 99 1014.2
20260507150125 62 213 0.0 0.0 0.00 0.79 0.28 99 1014.1
20260507145622 62 213 0.0 0.0 0.00 0.79 0.28 99 1014.0
20260507145101 62 213 0.0 0.0 0.00 0.79 0.28 99 1014.0
20260507144058 62 213 0.0 0.0 0.00 0.79 0.28 99 1014.0
20260507143547 62 213 0.0 0.0 0.00 0.79 0.28 100 1013.9
20260507143045 61 213 0.0 0.0 0.00 0.79 0.28 100 1013.9
20260507142520 61 213 0.0 0.0 0.00 0.79 0.28 100 1014.1
20260507142004 61 213 0.0 0.0 0.00 0.79 0.28 100 1014.0
20260507141501 61 213 0.0 0.0 0.00 0.79 0.28 100 1014.2
20260507135915 61 213 0.0 0.0 0.00 0.79 0.28 100 1013.9
20260507135350 61 213 0.0 0.0 0.00 0.79 0.28 100 1013.6
20260507134824 61 213 0.0 0.0 0.00 0.79 0.28 100 1013.5
20260507133751 61 213 0.0 0.0 0.00 0.79 0.28 100 1013.7
20260507132746 61 213 0.0 0.0 0.00 0.79 0.28 100 1013.6
20260507132237 61 213 0.0 0.0 0.00 0.79 0.28 100 1013.4
20260507131736 61 213 0.0 0.0 0.00 0.79 0.28 100 1013.2
20260507131240 60 213 0.0 0.0 0.00 0.79 0.28 100 1013.3
20260507130206 60 213 0.0 0.0 0.00 0.79 0.28 100 1013.2
20260507125631 60 213 0.0 0.0 0.00 0.79 0.28 100 1012.9
20260507124601 60 213 0.0 1.0 0.00 0.79 0.28 100 1012.9
20260507124051 60 213 0.0 0.0 0.00 0.79 0.28 100 1012.9
20260507123548 60 245 0.0 0.0 0.00 0.79 0.28 100 1012.9
20260507122540 61 245 0.0 0.0 0.00 0.79 0.28 100 1012.6
20260507122019 60 245 0.0 0.0 0.00 0.79 0.28 100 1012.4
20260507121451 60 245 0.0 0.0 0.00 0.79 0.28 100 1012.3
20260507120949 60 245 0.0 0.0 0.00 0.79 0.28 100 1012.1
20260507120446 60 245 0.0 0.0 0.00 0.79 0.28 100 1011.7
20260507115927 60 245 0.0 0.0 0.00 0.79 0.28 100 1011.8
20260507115427 60 245 0.0 0.0 0.00 0.79 0.28 100 1011.8
20260507114927 60 245 0.0 0.0 0.00 0.79 0.28 100 1011.9
20260507114403 60 245 0.0 0.0 0.00 0.79 0.28 100 1011.9
20260507113838 60 245 0.0 0.0 0.00 0.79 0.28 100 1012.1
20260507112814 60 245 0.0 0.0 0.00 0.79 0.28 100 1011.8
20260507111811 60 245 0.0 0.0 0.00 0.79 0.28 100 1011.6
20260507111301 61 245 0.0 0.0 0.00 0.79 0.28 100 1011.6
20260507110800 61 245 0.0 0.0 0.00 0.79 0.28 100 1011.8
20260507110231 61 245 0.0 0.0 0.00 0.79 0.28 99 1011.8
20260507105728 61 245 0.0 0.0 0.00 0.79 0.28 99 1011.9
20260507105201 61 245 0.0 4.0 0.00 0.79 0.28 99 1012.0
20260507104658 62 245 0.0 4.0 0.00 0.79 0.28 99 1011.4
20260507104145 62 324 0.0 0.0 0.00 0.79 0.28 100 1011.3
20260507103644 62 324 0.0 0.0 0.01 0.79 0.28 100 1010.9
20260507103142 63 324 0.0 0.0 0.01 0.79 0.28 100 1010.9
20260507102102 63 324 0.0 0.0 0.01 0.79 0.28 100 1010.9
20260507101546 64 324 0.0 0.0 0.01 0.79 0.28 100 1010.8
20260507101027 64 324 0.0 0.0 0.01 0.79 0.28 100 1010.5
20260507100006 65 324 0.0 0.0 0.06 0.79 0.28 100 1010.2
20260507095439 65 324 0.0 0.0 0.08 0.79 0.28 100 1010.3
20260507094431 65 324 0.0 0.0 0.13 0.79 0.28 100 1010.3
20260507093901 65 324 0.0 0.0 0.15 0.79 0.28 100 1010.2
20260507093349 65 324 0.0 0.0 0.16 0.78 0.27 100 1010.2
20260507092848 65 324 0.0 0.0 0.16 0.78 0.27 100 1010.2
20260507092342 65 324 0.0 0.0 0.16 0.78 0.27 100 1010.3
20260507091828 65 324 0.0 0.0 0.16 0.78 0.27 100 1010.3
20260507091324 65 324 0.0 0.0 0.16 0.78 0.27 100 1010.2
20260507090811 65 324 0.0 0.0 0.15 0.77 0.26 100 1010.3
20260507090313 65 324 0.0 0.0 0.13 0.75 0.24 100 1010.1
20260507085801 65 324 0.0 0.0 0.11 0.73 0.22 100 1010.1
20260507085251 66 324 0.0 0.0 0.07 0.69 0.19 100 1010.0
20260507084746 66 324 0.0 0.0 0.06 0.67 0.16 100 1010.2
20260507084218 66 324 0.0 0.0 0.04 0.65 0.14 100 1010.3
20260507083722 66 324 0.0 0.0 0.02 0.63 0.12 100 1010.0
20260507083202 66 324 0.0 0.0 0.01 0.62 0.11 100 1010.1
20260507082159 66 324 0.0 0.0 0.05 0.62 0.11 100 1009.7
20260507081657 66 324 0.0 0.0 0.05 0.62 0.11 100 1009.7
20260507081129 66 324 0.0 0.0 0.05 0.62 0.11 100 1009.9
20260507080626 66 324 0.0 0.0 0.06 0.62 0.11 100 1010.0
20260507080106 66 324 0.0 0.0 0.07 0.62 0.11 100 1009.8
20260507075549 66 324 0.0 0.0 0.09 0.62 0.11 100 1009.7
20260507075045 66 324 0.0 0.0 0.09 0.62 0.11 100 1009.9
20260507074544 66 324 0.0 0.0 0.08 0.61 0.10 100 1010.0
20260507074040 66 324 0.0 0.0 0.08 0.61 0.10 100 1010.0
20260507073517 66 324 0.0 0.0 0.08 0.61 0.10 100 1010.1
20260507072952 67 324 0.0 0.0 0.07 0.60 0.09 100 1010.3
20260507072426 67 324 0.0 0.0 0.05 0.58 0.07 100 1009.9
20260507071902 67 324 0.0 0.0 0.04 0.57 0.06 100 1009.8
20260507071342 67 324 0.0 4.0 0.04 0.57 0.06 100 1009.8
20260507070314 67 324 1.0 5.0 0.02 0.55 0.04 100 1008.3
20260507065810 67 243 1.0 5.0 0.00 0.53 0.03 100 1008.7
20260507065234 67 213 0.0 1.0 0.00 0.53 0.02 100 1009.3
20260507064724 67 268 0.0 0.0 0.00 0.53 0.02 100 1010.5
20260507064224 67 268 0.0 0.0 0.00 0.53 0.02 100 1010.8
20260507063715 67 268 0.0 0.0 0.00 0.53 0.02 100 1010.8
20260507063220 67 268 0.0 2.0 0.01 0.53 0.02 100 1010.5
20260507062713 67 268 0.0 2.0 0.01 0.53 0.02 100 1010.6
20260507062215 67 211 0.0 0.0 0.01 0.53 0.02 100 1010.7